Tracking 31027 objects as of 19-Jul-2025
HD Live streaming from Space Station
objects crossing your sky now

STARLINK-31095

Track STARLINK-31095 now!
10-day predictions
STARLINK-31095 is classified as:


NORAD ID: 58683
Int'l Code: 2023-211S
Perigee: 489.0 km
Apogee: 491.4 km
Inclination: 43.0 °
Period: 94.3 minutes
Semi major axis: 6861 km
RCS: Unknown
Launch date: December 29, 2023
Source: United States (US)
Launch site: AIR FORCE EASTERN TEST RANGE (AFETR)
Your satellite tracking list
Your tracking list is empty




NASA's NSSDC Master Catalog

Two Line Element Set (TLE):
1 58683U 23211S   25199.62325364  .00000986  00000-0  45369-4 0  9990
2 58683  43.0059 327.4649 0001810 269.2919  90.7725 15.27578002 87930
Source of the keplerian elements: AFSPC